Погода в Тополином

Россия / Республика Саха (Якутия)     64°04′23″N   135°57′46″E
темп.,
°C
ветер,
м/с
пор.,
м/с
влажн.,
%
обл.,
%
осадки,
мм/ч
давл.,
гПа
погр.,
м
20 января, чт
чт2000:00−41в009934 0.0 10408
03:00−42юв009829 0.0 10408
06:00−42ссз009723 0.0 10408
09:00−43зюз009723 0.0 10418
12:00−39зюз009529 0.0 103924
15:00−41с009829 0.0 10408
18:00−43ссв0010055 0.0 10428
21:00−43всв00100100 0.0 10438
21 января, пт
пт2100:00−43ссв0010062 0.0 10428
03:00−44ссв0010065 0.0 10438
06:00−45с0010060 0.0 10448
09:00−44с1110065 0.0 10448
12:00−40с0099100 0.0 104236
15:00−40ссв11100100 0.1 10419
18:00−41с1110099 0.0 10428
21:00−41с11100100 0.1 10419
22 января, сб
сб2200:00−40с11100100 0.0 10409
03:00−40с11100100 0.1 104011
06:00−40ссз11100100 0.0 103911
09:00−40ссз1110099 0.1 103812
12:00−36с119999 0.0 103654
15:00−38ссв1110085 0.1 103610
18:00−41с1110079 0.0 10379
21:00−41ссв1110097 0.0 10368
23 января, вс
вс2300:00−42с0110098 0.0 10368
03:00−42ссв1110099 0.0 10358
06:00−42ссв1110099 0.0 10358
09:00−42св00100100 0.0 10348
12:00−38ссв00100100 0.0 103136
15:00−36св1198100 0.1 102914
18:00−33ссв0097100 0.0 102850
21:00−31с0098100 0.1 102648
24 января, пн
пн2400:00−34с1110093 0.1 10279
03:00−36сз1110098 0.1 10289
06:00−39св0010093 0.0 10299
09:00−40ссв0110094 0.1 10308
12:00−37ссв1110093 0.0 102923
15:00−39св1110089 0.0 10299
18:00−42ссв1110089 0.0 10318
21:00−42св1110097 0.0 10308